Regional Weather Roundup
Issued by NWS Bismarck, ND

Home | Current Version | Previous Version | Text Only | Print | Product List | Glossary On
Versions: 1 2 3 4 5 6 7 8 9 10 11 12 13 14 15 16 17 18 19 20 21 22 23 24 25 26 27 28 29 30 31 32 33 34 35 36 37 38 39 40 41 42 43 44 45 46 47 48 49 50
000
ASUS43 KBIS 231159
RWRBIS

NWR BROADCAST TEXT
NATIONAL WEATHER SERVICE BISMARCK ND
700 AM CDT TUE SEP 23 2014

NOTE: "FAIR" INDICATES FEW OR NO CLOUDS BELOW 12,000 FEET WITH NO
SIGNIFICANT WEATHER AND/OR OBSTRUCTIONS TO VISIBILITY.


CITY           SKY/WX    TMP DP  RH WIND       PRES   REMARKS
WILLISTON      CLEAR     50  46  86 N5        29.85S
MINOT          CLEAR     51  47  86 CALM      29.88S
MINOT AFB      NOT AVBL
BISMARCK       CLEAR     54  52  93 SE5       29.92S
DICKINSON      NOT AVBL
GARRISON         N/A     54  52  93 SE6       29.89S
HETTINGER ARPT PTCLDY    53  50  89 SE6       29.91R
JAMESTOWN      NOT AVBL
CARRINGTON     FAIR      54  54 100 SE10      29.97S
WATFORD CITY   FAIR      48  46  93 E3        29.84S
$$

CITY           SKY/WX    TMP DP  RH WIND       PRES   REMARKS
GRAND FORKS    CLEAR     52  48  86 S10       30.02S
GRAND FORKS AF NOT AVBL
DEVILS LAKE    CLEAR     55  46  71 SE8       29.95S
FARGO          CLEAR     56  48  74 SE12      30.04S
CAVALIER       FAIR      48  46  93 S7        30.00S
GWINNER        MOSUNNY   54  54 100 SE7       30.03S
$$

CITY           SKY/WX    TMP DP  RH WIND       PRES   REMARKS
ABERDEEN       CLOUDY    60  53  77 SE10      30.00S
MOBRIDGE       CLOUDY    63  55  75 S13       29.92R
RAPID CITY     MOCLDY    59  54  83 CALM      29.89F
GLASGOW        CLEAR     49  44  83 NE5       29.84S
SIDNEY         CLEAR     46  45  93 CALM      29.86S
WOLF POINT     CLEAR     45  42  89 CALM      29.84S
GLENDIVE       CLEAR     50  46  87 N3        29.86S
MILES CITY     MOCLDY    55  49  80 S5        29.87R
BAKER          PTCLDY    50  47  89 CALM      29.88S
$$

CITY           SKY/WX    TMP DP  RH WIND       PRES   REMARKS
BILLINGS       PTCLDY    59  47  64 SW16      29.97R
GREAT FALLS    CLEAR     59  46  62 SW13      29.96S
$$




USA.gov is the U.S. government's official web portal to all federal, state and local government web resources and services.